Weather History for Anchorage, AK

Change the Weather History Date:

Saturday, February 9, 2013

  Actual Average Record
Temperature  
Mean Temperature 31 °F 19 °F  
Max Temperature 36 °F 25 °F 46 °F (1927)
Min Temperature 25 °F 13 °F -27 °F (1949)
Degree Days  
Heating Degree Days 34    
Month to date heating degree days 330  
Since 1 July heating degree days 6650  
Cooling Degree Days 0    
Month to date cooling degree days 0  
Year to date cooling degree days 0  
Moisture  
Dew Point 26 °F    
Average Humidity 84    
Maximum Humidity 92    
Minimum Humidity 75    
Precipitation  
Precipitation T in 0.03 in 0.31 in (1995)
Month to date precipitation 0.32 0.25  
Year to date precipitation 1.54 0.98  
Snow  
Snow T in 0.40 in 3.70 in (1996)
Month to date snowfall 3.7 3.7  
Since 1 July snowfall 43.3 53.1  
Snow Depth 12.00 in    
Sea Level Pressure  
Sea Level Pressure 29.32 in    
Wind  
Wind Speed 7 mph (NW)    
Max Wind Speed 12 mph    
Max Gust Speed 20 mph    
Visibility 10 miles    
Events Snow    
T = Trace of Precipitation, MM = Missing Value Source: NWS Daily Summary

Daily Weather History Graph

Daily Weather History Graph

Search for Another Location

Airport:

Trip Planner

Search our weather history database for the weather conditions in past years. The results will help you decide how hot, cold, wet, or windy it might be!

Date:

Astronomy

Feb. 09, 2013 Rise Set
Actual Time 8:57 AM AKST 5:31 PM AKST
Civil Twilight 8:10 AM AKST 6:18 PM AKST
Nautical Twilight 7:19 AM AKST 7:10 PM AKST
Astronomical Twilight 6:29 AM AKST 8:00 PM AKST
Moon 8:09 AM AKST (2/9) 5:38 PM AKST (2/9)
Length of Visible Light 10h 07m
Length of Day
8h 33m
Waning Crescent, 0% of the Moon is Illuminated
Feb 9
Waning Crescent
Feb 9
New
Feb 17
First Quarter
Feb 25
Full
Mar 4
Last Quarter

Hourly Weather History & Observations

Time (AKST) Temp. Windchill Dew Point Humidity Pressure Visibility Wind Dir Wind Speed Gust Speed Precip Events Conditions
12:53 AM 27.0 °F 18.7 °F 24.1 °F 89% 29.71 in 10.0 mi NNW 8.1 mph - N/A   Overcast
1:53 AM 27.0 °F 18.7 °F 24.1 °F 89% 29.68 in 10.0 mi NW 8.1 mph - N/A   Overcast
3:53 AM 27.0 °F 18.7 °F 23.0 °F 85% 29.60 in 10.0 mi NNW 8.1 mph - N/A   Overcast
4:53 AM 27.0 °F 16.7 °F 23.0 °F 85% 29.56 in 10.0 mi NW 11.5 mph - N/A   Overcast
5:53 AM 27.0 °F 16.1 °F 23.0 °F 85% 29.54 in 6.0 mi NW 12.7 mph - 0.00 in Snow Light Snow
6:53 AM 28.0 °F - 24.1 °F 85% 29.49 in 5.0 mi Calm Calm - 0.00 in Snow Light Snow
7:45 AM 28.4 °F 22.2 °F 24.8 °F 86% 29.46 in 10.0 mi WNW 5.8 mph - 0.00 in Snow Light Snow
7:53 AM 28.0 °F 20.0 °F 25.0 °F 88% 29.47 in 10.0 mi WNW 8.1 mph - 0.00 in Snow Light Snow
8:17 AM 28.4 °F 19.7 °F 24.8 °F 86% 29.44 in 10.0 mi NW 9.2 mph - 0.00 in Snow Light Snow
8:53 AM 28.0 °F 18.6 °F 25.0 °F 88% 29.43 in 10.0 mi NW 10.4 mph - 0.00 in   Overcast
9:53 AM 28.0 °F 19.3 °F 25.0 °F 88% 29.39 in 10.0 mi WNW 9.2 mph - N/A   Overcast
10:53 AM 28.0 °F 20.0 °F 25.0 °F 88% 29.37 in 10.0 mi NW 8.1 mph - N/A   Mostly Cloudy
11:53 AM 30.0 °F 23.2 °F 26.1 °F 85% 29.33 in 10.0 mi NW 6.9 mph - N/A   Mostly Cloudy
12:53 PM 30.9 °F 21.7 °F 26.1 °F 82% 29.32 in 10.0 mi WNW 11.5 mph - N/A   Mostly Cloudy
1:53 PM 33.1 °F 25.5 °F 27.0 °F 78% 29.27 in 10.0 mi WNW 9.2 mph - N/A   Mostly Cloudy
2:53 PM 33.1 °F 27.7 °F 28.0 °F 82% 29.24 in 10.0 mi WNW 5.8 mph - N/A   Mostly Cloudy
3:53 PM 33.1 °F 30.0 °F 28.0 °F 82% 29.19 in 10.0 mi West 3.5 mph - N/A   Mostly Cloudy
4:53 PM 32.0 °F 24.2 °F 28.0 °F 85% 29.18 in 10.0 mi WNW 9.2 mph - N/A   Scattered Clouds
5:53 PM 27.0 °F 21.6 °F 25.0 °F 92% 29.13 in 10.0 mi WSW 4.6 mph - N/A   Scattered Clouds
6:53 PM 28.9 °F 22.8 °F 26.1 °F 89% 29.11 in 10.0 mi West 5.8 mph - N/A   Scattered Clouds
7:53 PM 32.0 °F 28.7 °F 27.0 °F 82% 29.06 in 10.0 mi Variable 3.5 mph - N/A   Mostly Cloudy
8:31 PM 37.4 °F 30.8 °F 28.4 °F 70% 29.05 in 10.0 mi ESE 9.2 mph 19.6 mph N/A   Mostly Cloudy
8:53 PM 34.0 °F - 28.0 °F 79% 29.06 in 10.0 mi Calm Calm - N/A   Mostly Cloudy
9:53 PM 32.0 °F 25.6 °F 27.0 °F 82% 29.04 in 10.0 mi North 6.9 mph - N/A   Mostly Cloudy
10:53 PM 30.2 °F 26.7 °F 26.6 °F 86% 29.00 in 10.0 mi Variable 3.5 mph - N/A   Mostly Cloudy
11:53 PM 30.0 °F 23.2 °F 27.0 °F 88% 29.00 in 10.0 mi WNW 6.9 mph - N/A   Overcast